Location: ??????????
(54.8537°N, 38.8755°E)
Time: 02:31:05
(UTC+00:00)

Transit 4A - Pass Details

Date: 21 September 2024
Orbit: 865 x 977 km, 66.8° (Epoch: 09 October)

Event Time Altitude Azimuth Distance (km) Brightness Sun altitude
Exits shadow 02:17:17 - 280° (W) 2,789 9.8 -8.1°
Reaches altitude 10° 02:17:56 10° 283° (WNW) 2,584 9.7 -8.1°
Maximum altitude 02:23:11 31° 344° (NNW) 1,577 9.1 -7.3°
Drops below altitude 10° 02:28:35 10° 45° (NE) 2,659 11.3 -6.6°
Sets 02:31:30 0° 56° (NE) 3,623 12.4 -6.1°
